Location: Observatoire de l'Aigle
(47.0607°N, 71.3152°W)
Time: 08:47:50
(UTC-04:00)

Amateur Radio Satellites - All Passes

Search period start: 31 October 2014 08:17
Search period end: 01 November 2014 08:17
Location: Observatoire de l'Aigle, 47.0607°N, 71.3152°W

Satellite Date Start Highest point End Downlink Frequencies (MHz)
Time Altitude Azimuth
JAS-2 31 Oct 08:24:31 08:30:19 24° 306° (NW) 08:36:07 435.800 - 435.900 CW/SSB, 435.910 FM
Saudisat 1A 31 Oct 08:29:18 08:32:01 16° 332° (NNW) 08:34:44 436.775 MHz
AO-7 31 Oct 08:43:42 08:46:39 12° 327° (NNW) 08:49:36 29.400 - 29.500 MHz
SO-67 31 Oct 08:50:41 08:53:25 22° 292° (WNW) 08:56:09 435.3500 MHz FM
Sapphire 31 Oct 09:27:21 09:31:11 19° 33° (NNE) 09:35:00 437.095 MHz 1200 baud AX-25 AFSK
HO-68 31 Oct 09:33:12 09:40:14 53° 101° (E) 09:47:13 435.675 MHz FM
PCSat 31 Oct 09:48:50 09:53:19 25° 39° (NE) 09:57:46 145.825 MHz
UKube-1 31 Oct 09:51:21 09:55:04 27° 95° (E) 09:58:45 145.840 MHz, 145.915 MHz
ZACube-1 31 Oct 10:00:48 10:03:09 15° 89° (E) 10:05:28 437.345 MHz
Oscar 11 31 Oct 10:26:09 10:30:26 60° 101° (E) 10:34:42 145.825 FM, Beacon 2401.500 USB
SO-50 31 Oct 10:35:51 10:39:16 22° 113° (ESE) 10:42:46 436.795 FM
ISS 31 Oct 10:42:11 10:45:21 43° 146° (SE) 10:48:32 145.800 FM
FUNcube-1 31 Oct 10:42:33 10:46:30 38° 97° (E) 10:50:22 145.950 - 145.970 MHz USB
KITSAT 1 31 Oct 10:44:48 10:52:30 51° 114° (ESE) 11:00:13 435.175 FM
Sapphire 31 Oct 11:10:06 11:15:34 74° 55° (NE) 11:20:59 437.095 MHz 1200 baud AX-25 AFSK
HO-68 31 Oct 11:21:17 11:27:43 37° 301° (WNW) 11:34:09 435.675 MHz FM
UKube-1 31 Oct 11:27:20 11:31:18 34° 293° (WNW) 11:35:14 145.840 MHz, 145.915 MHz
PCSat 31 Oct 11:31:51 11:37:18 74° 240° (WSW) 11:42:41 145.825 MHz
ZACube-1 31 Oct 11:35:48 11:39:58 58° 287° (WNW) 11:44:02 437.345 MHz
Oscar 16 31 Oct 11:52:58 11:56:16 18° 58° (ENE) 11:59:35 437.025 USB, Beacon 2401.1428
Saudisat 1A 31 Oct 11:53:31 11:55:10 12° 21° (NNE) 11:56:49 436.775 MHz
Oscar 11 31 Oct 12:03:28 12:06:11 17° 299° (WNW) 12:08:53 145.825 FM, Beacon 2401.500 USB
SO-50 31 Oct 12:14:58 12:19:26 57° 312° (NW) 12:24:04 436.795 FM
ISS 31 Oct 12:18:48 12:22:03 48° 345° (NNW) 12:25:18 145.800 FM
FUNcube-1 31 Oct 12:19:23 12:22:41 22° 296° (WNW) 12:25:55 145.950 - 145.970 MHz USB
Uribyol 2 31 Oct 12:25:58 12:29:03 16° 56° (NE) 12:32:08 436.500 FM
AO-Echo 31 Oct 12:28:44 12:32:12 19° 58° (ENE) 12:35:44 ?
ITAMSAT 1 31 Oct 12:33:35 12:36:55 17° 57° (ENE) 12:40:16 435.822 SSB
KITSAT 1 31 Oct 12:40:12 12:47:59 49° 317° (NW) 12:55:49 435.175 FM
Oscar 19 31 Oct 12:43:13 12:48:02 42° 68° (ENE) 12:52:51 437.125 CW, 437.150 USB
JAS-1B 31 Oct 12:44:07 12:49:26 42° 65° (ENE) 12:54:52 435.800 - 435.900 CW/SSB
Sapphire 31 Oct 12:54:39 12:58:24 19° 254° (WSW) 13:02:08 437.095 MHz 1200 baud AX-25 AFSK
UOSAT-12 31 Oct 12:59:14 13:03:43 50° 121° (ESE) 13:08:17 437.025 FM, 437.400 FM
PCSat 31 Oct 13:18:03 13:19:44 11° 258° (WSW) 13:21:26 145.825 MHz
AO-27 31 Oct 13:19:17 13:24:06 39° 66° (ENE) 13:28:58 436.795 MHz FM
Oscar 16 31 Oct 13:29:52 13:35:02 78° 256° (WSW) 13:40:12 437.025 USB, Beacon 2401.1428
Saudisat 1A 31 Oct 13:31:48 13:35:58 38° 44° (NE) 13:40:06 436.775 MHz
Gurwin Techsat 1B 31 Oct 13:34:39 13:39:13 30° 64° (ENE) 13:43:49 435.225 FM
TMSAT-1 31 Oct 13:41:21 13:45:42 27° 62° (ENE) 13:50:04 436.925 FM
ISS 31 Oct 13:56:02 13:59:10 36° 5° (N) 14:02:18 145.800 FM
SO-50 31 Oct 13:58:13 14:01:01 16° 335° (NNW) 14:03:52 436.795 FM
Uribyol 2 31 Oct 14:02:35 14:07:49 88° 255° (WSW) 14:13:06 436.500 FM
AO-Echo 31 Oct 14:05:23 14:10:23 72° 258° (WSW) 14:15:35 ?
AO-7 31 Oct 14:07:24 14:13:54 27° 49° (NE) 14:20:24 29.400 - 29.500 MHz
ITAMSAT 1 31 Oct 14:10:33 14:15:47 81° 256° (WSW) 14:21:03 435.822 SSB
Uosat F 31 Oct 14:23:01 14:24:00 11° 52° (NE) 14:24:59 435.120 FM
Oscar 19 31 Oct 14:23:06 14:27:30 28° 266° (W) 14:31:55 437.125 CW, 437.150 USB
JAS-1B 31 Oct 14:35:27 14:40:23 29° 266° (W) 14:45:22 435.800 - 435.900 CW/SSB
KITSAT 1 31 Oct 14:39:30 14:45:34 22° 344° (NNW) 14:51:39 435.175 FM
UOSAT-12 31 Oct 14:39:56 14:44:05 30° 321° (NW) 14:48:18 437.025 FM, 437.400 FM
AO-27 31 Oct 14:59:04 15:03:41 31° 265° (W) 15:08:21 436.795 MHz FM
Saudisat 1A 31 Oct 15:11:31 15:15:28 32° 243° (WSW) 15:19:24 436.775 MHz
JAS-2 31 Oct 15:12:18 15:15:55 15° 46° (NE) 15:19:43 435.800 - 435.900 CW/SSB, 435.910 FM
Gurwin Techsat 1B 31 Oct 15:14:00 15:19:02 43° 262° (W) 15:24:06 435.225 FM
Oscar 16 31 Oct 15:14:12 15:15:14 11° 275° (W) 15:16:15 437.025 USB, Beacon 2401.1428
TMSAT-1 31 Oct 15:20:12 15:25:20 50° 261° (W) 15:30:31 436.925 FM
ISS 31 Oct 15:32:48 15:36:09 82° 24° (NNE) 15:39:30 145.800 FM
Uribyol 2 31 Oct 15:45:47 15:48:03 13° 273° (W) 15:50:20 436.500 FM
ITAMSAT 1 31 Oct 15:54:28 15:56:06 11° 274° (W) 15:57:45 435.822 SSB
Uosat F 31 Oct 15:56:50 16:01:48 62° 71° (ENE) 16:06:48 435.120 FM
AO-7 31 Oct 15:57:28 16:05:46 88° 250° (WSW) 16:14:07 29.400 - 29.500 MHz
UOSAT-12 31 Oct 16:24:13 16:25:45 11° 344° (NNW) 16:27:18 437.025 FM, 437.400 FM
KITSAT 1 31 Oct 16:38:20 16:44:18 22° 14° (NNE) 16:50:15 435.175 FM
JAS-2 31 Oct 16:53:05 16:59:24 61° 69° (ENE) 17:06:33 435.800 - 435.900 CW/SSB, 435.910 FM
Hamsat 31 Oct 17:06:22 17:10:16 39° 70° (ENE) 17:14:10 145.90 MHz
ISS 31 Oct 17:10:02 17:12:31 19° 222° (SW) 17:14:59 145.800 FM
SO-50 31 Oct 17:23:31 17:26:18 15° 25° (NNE) 17:29:07 436.795 FM
Uosat F 31 Oct 17:37:32 17:41:01 19° 269° (W) 17:44:32 435.120 FM
AO-7 31 Oct 17:53:50 17:59:40 21° 271° (W) 18:05:34 29.400 - 29.500 MHz
SO-67 31 Oct 17:53:55 17:55:57 15° 65° (ENE) 17:58:00 435.3500 MHz FM
OPAL 31 Oct 18:01:46 18:06:37 52° 103° (ESE) 18:11:26 ?
STRAND 1 31 Oct 18:21:01 18:23:38 14° 88° (E) 18:26:14 ?
HO-68 31 Oct 18:22:02 18:25:23 14° 43° (NE) 18:28:45 435.675 MHz FM
KITSAT 1 31 Oct 18:34:18 18:42:02 46° 42° (NE) 18:49:42 435.175 FM
JAS-2 31 Oct 18:39:33 18:44:59 29° 271° (W) 18:51:01 435.800 - 435.900 CW/SSB, 435.910 FM
Hamsat 31 Oct 18:43:12 18:46:22 21° 268° (W) 18:49:34 145.90 MHz
SO-50 31 Oct 19:03:15 19:07:58 50° 46° (NE) 19:12:43 436.795 FM
SO-67 31 Oct 19:25:22 19:28:37 40° 262° (W) 19:31:54 435.3500 MHz FM
AO-40 31 Oct 19:40:09 22:20:01 21° 123° (ESE) 23:35:59 Beacon 2401.320
OPAL 31 Oct 19:41:18 19:45:12 24° 301° (WNW) 19:49:06 ?
RS-15 31 Oct 19:44:17 19:52:33 26° 102° (ESE) 20:00:45 29.354 - 29.394 USB, Beacon 29.352 USB
UOSAT-12 31 Oct 19:46:21 19:50:04 22° 33° (NNE) 19:53:44 437.025 FM, 437.400 FM
STRAND 1 31 Oct 19:58:19 20:03:30 84° 286° (WNW) 20:08:38 ?
HO-68 31 Oct 20:04:39 20:11:35 55° 65° (ENE) 20:18:33 435.675 MHz FM
KITSAT 1 31 Oct 20:29:51 20:37:41 56° 244° (WSW) 20:45:29 435.175 FM
SO-50 31 Oct 20:44:14 20:48:19 27° 245° (WSW) 20:52:25 436.795 FM
UKube-1 31 Oct 20:49:31 20:53:28 35° 67° (ENE) 20:57:26 145.840 MHz, 145.915 MHz
Oscar 10/S400 31 Oct 20:59:04 21:39:26 41° 204° (SSW) 03:50:06 145.825 - 145.975 CW/USB, Beacon 145.810 USB
ZACube-1 31 Oct 20:59:53 21:03:08 20° 63° (ENE) 21:06:20 437.345 MHz
Oscar 11 31 Oct 21:23:52 21:28:09 69° 74° (ENE) 21:32:28 145.825 FM, Beacon 2401.500 USB
UOSAT-12 31 Oct 21:26:02 21:30:48 82° 234° (SW) 21:35:27 437.025 FM, 437.400 FM
STRAND 1 31 Oct 21:39:14 21:41:55 14° 305° (NW) 21:44:36 ?
FUNcube-1 31 Oct 21:41:23 21:45:42 47° 71° (ENE) 21:49:57 145.950 - 145.970 MHz USB
MaSat-1 31 Oct 21:50:48 21:54:17 34° 113° (ESE) 21:57:27 437.345 MHz
RS-15 31 Oct 21:52:22 22:03:21 88° 125° (SE) 22:14:23 29.354 - 29.394 USB, Beacon 29.352 USB
HO-68 31 Oct 21:53:10 21:59:34 34° 265° (W) 22:06:01 435.675 MHz FM
UKube-1 31 Oct 22:26:02 22:29:42 26° 265° (W) 22:33:25 145.840 MHz, 145.915 MHz
KITSAT 1 31 Oct 22:29:39 22:31:17 11° 264° (W) 22:32:55 435.175 FM
ZACube-1 31 Oct 22:34:48 22:39:12 51° 260° (W) 22:43:32 437.345 MHz
Oscar 11 31 Oct 23:02:47 23:04:49 13° 271° (W) 23:06:52 145.825 FM, Beacon 2401.500 USB
UOSAT-12 31 Oct 23:08:28 23:10:09 12° 253° (WSW) 23:11:50 437.025 FM, 437.400 FM
FUNcube-1 31 Oct 23:18:57 23:22:18 20° 268° (W) 23:25:36 145.950 - 145.970 MHz USB
MaSat-1 31 Oct 23:26:48 23:29:42 22° 308° (NW) 23:32:24 437.345 MHz
RS-15 01 Nov 00:07:03 00:17:08 40° 334° (NNW) 00:27:22 29.354 - 29.394 USB, Beacon 29.352 USB
JAS-1B 01 Nov 00:26:09 00:27:44 11° 84° (E) 00:29:22 435.800 - 435.900 CW/SSB
Oscar 19 01 Nov 00:54:05 00:55:31 11° 86° (E) 00:56:56 437.125 CW, 437.150 USB
AO-27 01 Nov 01:32:19 01:33:00 10° 85° (E) 01:33:42 436.795 MHz FM
Oscar 16 01 Nov 01:38:51 01:43:19 29° 95° (E) 01:47:46 437.025 USB, Beacon 2401.1428
Sapphire 01 Nov 01:55:14 02:00:06 35° 112° (ESE) 02:05:01 437.095 MHz 1200 baud AX-25 AFSK
AO-Echo 01 Nov 02:09:45 02:14:30 32° 95° (E) 02:19:11 ?
JAS-1B 01 Nov 02:12:29 02:19:27 59° 102° (ESE) 02:27:44 435.800 - 435.900 CW/SSB
Uribyol 2 01 Nov 02:12:49 02:17:10 26° 94° (E) 02:21:28 436.500 FM
PCSat 01 Nov 02:16:20 02:21:36 56° 117° (ESE) 02:26:55 145.825 MHz
ITAMSAT 1 01 Nov 02:20:48 02:25:19 29° 95° (E) 02:29:48 435.822 SSB
RS-15 01 Nov 02:23:48 02:33:17 32° 8° (N) 02:43:01 29.354 - 29.394 USB, Beacon 29.352 USB
Oscar 19 01 Nov 02:30:31 02:35:41 81° 104° (ESE) 02:40:48 437.125 CW, 437.150 USB
AO-27 01 Nov 03:08:10 03:13:25 75° 104° (ESE) 03:18:38 436.795 MHz FM
Oscar 16 01 Nov 03:18:00 03:22:47 40° 293° (WNW) 03:27:32 437.025 USB, Beacon 2401.1428
Gurwin Techsat 1B 01 Nov 03:26:42 03:31:59 61° 101° (ESE) 03:37:14 435.225 FM
TMSAT-1 01 Nov 03:32:44 03:37:56 52° 100° (E) 03:43:05 436.925 FM
Sapphire 01 Nov 03:38:18 03:43:27 43° 312° (NW) 03:48:39 437.095 MHz 1200 baud AX-25 AFSK
OPAL 01 Nov 03:42:36 03:46:22 21° 58° (ENE) 03:50:07 ?
AO-Echo 01 Nov 03:48:22 03:53:20 40° 293° (WNW) 03:58:14 ?
Uribyol 2 01 Nov 03:51:52 03:56:51 46° 292° (WNW) 04:01:46 436.500 FM
AO-7 01 Nov 03:56:19 04:02:59 26° 92° (E) 04:09:37 29.400 - 29.500 MHz
ITAMSAT 1 01 Nov 04:00:02 04:04:57 42° 293° (WNW) 04:09:49 435.822 SSB
PCSat 01 Nov 04:00:34 04:05:20 31° 318° (NW) 04:10:08 145.825 MHz
Uosat F 01 Nov 04:02:54 04:05:47 15° 89° (E) 04:08:38 435.120 FM
JAS-1B 01 Nov 04:03:46 04:09:50 34° 298° (WNW) 04:16:53 435.800 - 435.900 CW/SSB
Oscar 19 01 Nov 04:11:14 04:14:23 17° 303° (WNW) 04:17:32 437.125 CW, 437.150 USB
RS-15 01 Nov 04:37:48 04:48:40 56° 40° (NE) 04:59:56 29.354 - 29.394 USB, Beacon 29.352 USB
AO-27 01 Nov 04:48:50 04:52:21 19° 302° (WNW) 04:55:52 436.795 MHz FM
Gurwin Techsat 1B 01 Nov 05:07:29 05:11:32 23° 300° (WNW) 05:15:33 435.225 FM
TMSAT-1 01 Nov 05:13:15 05:17:33 26° 298° (WNW) 05:21:49 436.925 FM
OPAL 01 Nov 05:19:48 05:24:51 62° 256° (WSW) 05:29:52 ?
Saudisat 1A 01 Nov 05:20:27 05:24:18 30° 117° (ESE) 05:28:10 436.775 MHz
Sapphire 01 Nov 05:25:42 05:28:22 14° 336° (NNW) 05:31:03 437.095 MHz 1200 baud AX-25 AFSK
STRAND 1 01 Nov 05:39:11 05:43:33 29° 63° (ENE) 05:47:56 ?
Uosat F 01 Nov 05:40:05 05:45:09 77° 287° (WNW) 05:50:11 435.120 FM
JAS-2 01 Nov 05:43:40 05:51:15 48° 96° (E) 05:58:34 435.800 - 435.900 CW/SSB, 435.910 FM
AO-7 01 Nov 05:48:16 05:56:37 79° 292° (WNW) 06:04:57 29.400 - 29.500 MHz
PCSat 01 Nov 05:49:05 05:50:36 11° 342° (NNW) 05:52:07 145.825 MHz
Hamsat 01 Nov 06:24:20 06:28:29 54° 100° (E) 06:32:39 145.90 MHz
SO-67 01 Nov 06:47:14 06:48:17 11° 89° (E) 06:49:19 435.3500 MHz FM
RS-15 01 Nov 06:50:28 07:01:12 57° 245° (WSW) 07:12:24 29.354 - 29.394 USB, Beacon 29.352 USB
Saudisat 1A 01 Nov 06:59:38 07:03:46 39° 316° (NW) 07:07:57 436.775 MHz
STRAND 1 01 Nov 07:17:40 07:22:33 44° 261° (W) 07:27:29 ?
Uosat F 01 Nov 07:20:55 07:23:06 13° 306° (NW) 07:25:17 435.120 FM
JAS-2 01 Nov 07:28:49 07:36:10 46° 296° (WNW) 07:43:24 435.800 - 435.900 CW/SSB, 435.910 FM
MaSat-1 01 Nov 07:32:10 07:34:34 41° 245° (WSW) 07:36:50 437.345 MHz
AO-7 01 Nov 07:42:11 07:48:13 23° 314° (NW) 07:54:17 29.400 - 29.500 MHz
Hamsat 01 Nov 08:01:16 08:04:03 17° 297° (WNW) 08:06:50 145.90 MHz
